Regional Weather Roundup
Issued by NWS

Home | Current Version | Previous Version | Text Only | Print | Product List | Glossary Off
Versions: 1 2 3 4 5 6 7 8 9 10 11 12 13 14 15 16 17 18 19 20 21 22 23 24 25 26 27 28

000
ASUS45 KCYS 161910
RWRWY

WYOMING REGIONAL WEATHER ROUNDUP
NATIONAL WEATHER SERVICE CHEYENNE WY
1200 PM MST MON JAN 16 2017

NOTE:  "FAIR" INDICATES FEW OR NO CLOUDS BELOW 12,000 FEET
WITH NO SIGNIFICANT WEATHER AND/OR OBSTRUCTIONS TO VISIBILITY.

WYZ001-162000-
YELLOWSTONE NATIONAL PARK

CITY           SKY/WX    TMP DP  RH WIND       PRES   REMARKS
LK YELLOWSTONE   N/A     -5  -9  83 CALM      30.19F
W YELLOWSTONE  NOT AVBL

$$
WYZ002>013-054>058-071-098>099-162000-
NORTHERN WYOMING

CITY           SKY/WX    TMP DP  RH WIND       PRES   REMARKS
JACKSON        SUNNY     -2  -6  84 CALM      30.25F
CODY           FAIR      28  12  51 VRB3      30.13F
GREYBULL       FAIR      -3 -10  72 CALM      30.24F
WORLAND        FAIR       4  -1  80 CALM      30.19F
SHERIDAN       FAIR      28  13  53 S7        30.12F WCI  21
BUFFALO        FAIR      30   8  39 SE5       30.11F WCI  25
GILLETTE       FAIR      31  13  47 W12       30.10F WCI  22
HULETT         FAIR      32  12  43 SW7       30.10F WCI  26
NEWCASTLE      FAIR      30  14  51 NW13      30.09F WCI  20

$$
WYZ014>020-022>026-101>103-162000-
CENTRAL WYOMING

CITY           SKY/WX    TMP DP  RH WIND       PRES   REMARKS
BIG PINEY      FAIR      -8 -12  83 CALM      30.20S
PINEDALE       FAIR       3   0  85 CALM      30.19F
DUBOIS         NOT AVBL
LANDER         FAIR      11   4  73 N3        30.15F
RIVERTON       FAIR       8   4  83 CALM      30.17F
CASPER         FAIR      29  12  49 W10       30.14F WCI  20
DOUGLAS        FAIR      35   9  33 W12       30.12F WCI  27

$$
WYZ021-027>030-104>119-162000-
SOUTHERN WYOMING

CITY           SKY/WX    TMP DP  RH WIND       PRES   REMARKS
EVANSTON       FAIR       7   5  91 CALM      30.17F
ROCK SPRINGS   FAIR       2  -3  80 W6        30.18F WCI  -9
RAWLINS        FAIR      15   8  73 SW6       30.13F WCI   6
LARAMIE        CLOUDY    23  17  78 NE5       30.07F WCI  17
CHEYENNE       CLOUDY    33   3  28 N17G24    30.06F WCI  22
TORRINGTON     CLOUDY    39  11  31 NW12      30.08F WCI  32

$$




USA.gov is the U.S. government's official web portal to all federal, state and local government web resources and services.